Tracking 19706 objects as of 16-Jun-2019
HD Live streaming from Space Station
objects crossing your sky now

SL-8 DEB

Track SL-8 DEB now!
10-day predictions


NORAD ID: 5858
Int'l Code: 1971-114D
Perigee: 642.1 km
Apogee: 653.3 km
Inclination: 74.0 °
Period: 97.5 minutes
Semi major axis: 7018 km
RCS: 0.0106 m2 (small)
Launch date: December 17, 1971
Source: Commonwealth of Independent States (former USSR) (CIS)
Launch site: PLESETSK MISSILE AND SPACE COMPLEX (PKMTR)

Note: This is SATELLITE DEBRIS
aabbcc
Your satellite tracking list
Your tracking list is empty




NASA's NSSDC Master Catalog

Two Line Element Set (TLE):
1  5858U 71114D   19165.81020610 +.00000322 +00000-0 +51213-4 0  9993
2  5858 074.0079 214.9290 0007971 244.0860 115.9493 14.76449093525056
Source of the keplerian elements: AFSPC